Powrót do katalogu

STARLINK-4366

AktywnyŁącznośćSSO
NORAD 53227·PAYLOAD·🇺🇸 United States

Wystrzelony Jul 22, 2022 z Vandenberg Space Force Base

Loading…

Następne Przeloty (najbliższe 24 godziny)

TLE

ŚwieżeSource: CelesTrak SupGP

Epoka: Sep 14, 2026, 13:41 UTC

1 53227C 22084AQ  26257.57062500  .00075322  00000+0  23379-2 0  2573
2 53227  97.2841 313.3042 0001551  97.4746 216.5552 15.33404954    12

Śledź STARLINK-4366 w czasie rzeczywistym z AllMySat

Download on the App Store